OpenBCM V1.08-5-g2f4a (Linux)

Packet Radio Mailbox

IZ3LSV

[San Dona' di P. JN]

 Login: GUEST





  
LU9DCE > KEP      18.12.19 18:03l 256 Lines 12694 Bytes #999 (0) @ WW
BID : 5388_LU9DCE
Read: GUEST
Subj: TLE 18 12
Path: IZ3LSV<IQ5KG<I0OJJ<EA2RCF<LU9DCE
Sent: 191218/1600Z 5388@LU9DCE.TOR.BA.ARG.SOAM LinBPQ6.0.19

            __    _  _  ___  ____   ___  ____    ____  ____  ____
           (  )  / )( \/ _ \(    \ / __)(  __)  (  _ \(  _ \/ ___)
           / (_/\) \/ (\__  )) D (( (__  ) _)    ) _ ( ) _ (\___ \
           \____/\____/(___/(____/ \___)(____)  (____/(____/(____/
               ESTACION DE PACKET RADIO - BUENOS AIRES (GF05OM)
                   BOLETINES INFORMATIVOS PROGRAMADOS (BIP)
                      LINUX - HELLOCODELINUX@GMAIL.COM
+----------------------------------------------------------------------------+
OSCAR 7
1  7530U 74089B   19352.20115541 -.00000025  00000-0  12822-3 0  9998
2  7530 101.7732 318.1658 0012313 356.4054  14.8384 12.53641237 63390
OSCAR 11 (UoSAT 2)
1 14781U 84021B   19351.79497902  .00000037  00000-0  10604-4 0  9997
2 14781  97.5990   7.7768 0009986  83.2444 276.9906 14.83128202925752
OSCAR 19 (LUSAT)
1 20442U 90005G   19351.91708493 -.00000003  00000-0  15207-4 0  9999
2 20442  98.6705 293.7771 0011371 337.7376  22.3313 14.32940627562470
EYESAT A
1 22825U 93061C   19351.97220384 -.00000017  00000-0  11580-4 0  9990
2 22825  98.9168 344.8959 0008328 181.4407 178.6751 14.30073596368000
ITAMSAT
1 22826U 93061D   19352.49096316 -.00000012  00000-0  13459-4 0  9997
2 22826  98.9108 345.3959 0009081 168.9376 191.2007 14.30408137368281
RADIO ROSTO
1 23439U 94085A   19352.12962869 -.00000040  00000-0  58478-4 0  9991
2 23439  64.8126 181.0977 0145923  77.4844 284.2359 11.27569396 28621
JAS 2
1 24278U 96046B   19352.34063359 -.00000040  00000-0 -71581-5 0  9994
2 24278  98.5635 121.2237 0351109 126.4905 236.9125 13.53094978152505
TECHSAT 1B
1 25397U 98043D   19352.06821469 -.00000003  00000-0  17823-4 0  9995
2 25397  98.7091 290.1499 0000800 171.2633 188.8560 14.23676186113822
ISS (ZARYA)
1 25544U 98067A   19352.59085716 -.00000266  00000-0  33982-5 0  9996
2 25544  51.6429 167.1127 0007479  50.0306  57.7349 15.50120604203863
PCSAT
1 26931U 01043C   19352.11575661 -.00000049  00000-0  12961-4 0  9998
2 26931  67.0515 252.9316 0007075 264.0396  95.9899 14.30561884951064
SAUDISAT 1C
1 27607U 02058C   19351.92618349 -.00000071 +00000-0 +10851-4 0  9996
2 27607 064.5541 212.4319 0069411 220.5336 139.0587 14.75595608913795
CUTE-1
1 27844U 03031E   19351.79838269  .00000033  00000-0  34628-4 0  9996
2 27844  98.6835 357.2852 0009179 219.6638 140.3869 14.22211185854172
CUBESAT XI 4
1 27848U 03031J   19351.98332865  .00000019  00000-0  28521-4 0  9991
2 27848  98.6909 358.0021 0008919 231.8602 128.1772 14.21801935854043
MOZHAYETS 4
1 27939U 03042A   19352.39029128  .00000160  00000-0  37225-4 0  9993
2 27939  98.0653 124.9393 0012286 204.7128 155.3490 14.66824859867323
CUBESAT XI 5
1 28895U 05043F   19352.16980661  .00000105  00000-0  28918-4 0  9999
2 28895  97.9836 128.9425 0017801 133.2142 227.0551 14.63721326754171
CUTE-1.7+APD II
1 32785U 08021C   19352.14843743  .00000163  00000-0  23126-4 0  9998
2 32785  97.5594 343.3555 0013617  24.0804 336.1048 14.88389949630827
DELFI C3
1 32789U 08021G   19352.13358522  .00001092  00000-0  76203-4 0  9993
2 32789  97.4431  36.1036 0011403 214.5920 145.4567 15.07329213634446
SEEDS
1 32791U 08021J   19351.99239880  .00000211  00000-0  26683-4 0  9993
2 32791  97.5326 349.3206 0013179 357.4326   2.6823 14.90933502631270
YUBELEINY
1 32953U 08025A   19352.42343434  .00000037  00000-0  19437-3 0  9991
2 32953  82.5052  31.1213 0020411  91.8344 268.5071 12.43092991525016
PRISM (HITOMI)
1 33493U 09002B   19351.90375822 +.00000482 +00000-0 +47629-4 0  9994
2 33493 098.1309 279.8227 0013902 304.4030 055.5875 14.96847217592392
KKS-1 (KISEKI)
1 33499U 09002H   19351.82841092  .00000065  00000-0  17537-4 0  9990
2 33499  98.3334 196.2226 0008964 354.8077   5.3036 14.75488713586081
SWISSCUBE
1 35932U 09051B   19352.08225490  .00000095  00000-0  32448-4 0  9996
2 35932  98.5996 163.5871 0007041 333.5165  26.5671 14.56340300543329
BEESAT
1 35933U 09051C   19351.73097291  .00000074  00000-0  27799-4 0  9994
2 35933  98.6009 165.0524 0005520 351.2969   8.8132 14.56422411543382
ITUPSAT 1
1 35935U 09051E   19352.03150675  .00000073  00000-0  27985-4 0  9992
2 35935  98.6117 165.5846 0007747 345.2678  14.8291 14.55575363543162
XIWANG-1 (HOPE-1)
1 36122U 09072B   19351.76674427 -.00000040  00000-0  56523-5 0  9995
2 36122 100.0805 345.6374 0006929 285.1837  74.8499 13.16352582480832
TISAT 1
1 36799U 10035E   19352.00082849  .00000401  00000-0  46415-4 0  9993
2 36799  98.1749 150.4790 0011806 202.8964 157.1728 14.91227539511930
JUGNU
1 37839U 11058B   19352.19802510  .00000303  00000-0  19644-4 0  9995
2 37839  19.9621 308.0274 0019007 178.4578 302.6684 14.12667014423090
SRMSAT
1 37841U 11058D   19352.14128163  .00000312  00000-0  26428-4 0  9996
2 37841  19.9735   8.9204 0012027  41.7378   6.3893 14.10645828422482
M-CUBED/EXP-1 PRIME
1 37855U 11061F   19351.95018961  .00000512  00000-0  33669-4 0  9994
2 37855 101.7257 341.2310 0172126 256.4127 101.7862 15.05882513444200
HORYU 2
1 38340U 12025D   19351.69379882  .00000116  00000-0  24880-4 0  9993
2 38340  98.3077  35.5356 0010279 262.9580  97.0460 14.75787970408005
STRAND 1
1 39090U 13009E   19352.52694636  .00000019  00000-0  21589-4 0  9994
2 39090  98.4688 195.2629 0010227 103.9077 256.3246 14.35110408356615
SOMP
1 39134U 13015E   19352.16062014  .00000885  00000-0  49016-4 0  9995
2 39134  64.8618 149.0991 0037970 273.2259  86.4525 15.20579309368338
BEESAT 3
1 39135U 13015F   19351.88368903  .00000547  00000-0  36422-4 0  9992
2 39135  64.8647 170.8863 0042917 276.2785  83.3454 15.17791763367898
BEESAT 2
1 39136U 13015G   19351.85852745 +.00000681 +00000-0 +43811-4 0  9991
2 39136 064.8687 175.3344 0030743 282.5296 077.2391 15.17215148367416
CUBEBUG 1
1 39153U 13018D   19352.50312919  .00000174  00000-0  29609-4 0  9996
2 39153  97.9820  89.6457 0016112 330.0000  30.0288 14.80640247358861
ZACUBE
1 39417U 13066B   19351.97281454  .00000149  00000-0  24991-4 0  9992
2 39417  97.5611 355.2179 0059536 155.0359 205.3755 14.81193216328021
TRITON 1
1 39427U 13066M   19352.00591265  .00000122  00000-0  27714-4 0  9999
2 39427  97.7007 318.3576 0112584 302.2778  56.7559 14.67920120325087
GOMX 1
1 39430U 13066Q   19352.42483077  .00000222  00000-0  48944-4 0  9999
2 39430  97.7711 297.1620 0152031  38.5074 322.6860 14.59325214323257
HUMSAT D
1 39433U 13066T   19352.06895659  .00000464  00000-0  50263-4 0  9990
2 39433  97.5315  31.9022 0031834  53.9339 306.4822 14.92328673330277
CUBEBUG 2
1 39440U 13066AA  19352.46451426  .00000151  00000-0  28026-4 0  9997
2 39440  97.6144 340.2282 0079405 210.3933 149.2662 14.75931538326939
FUNCUBE 1
1 39444U 13066AE  19352.00692507  .00000209  00000-0  31848-4 0  9998
2 39444  97.5574 357.3592 0058799 148.0556 212.4245 14.82028319326935
UWE-3
1 39446U 13066AG  19351.81731450  .00000147  00000-0  26100-4 0  9995
2 39446  97.5872 346.7913 0069832 184.5615 175.4969 14.78465359326179
SPROUT
1 39770U 14029E   19352.34038562  .00000682  00000-0  81214-4 0  9999
2 39770  97.8906  94.5458 0008510 199.1811 160.9089 14.87543864301980
UNISAT 6
1 40012U 14033C   19352.14641563  .00000111  00000-0  23975-4 0  9991
2 40012  97.7309 210.6422 0057208 228.2491 131.3820 14.74045319295564
DUCHIFAT 1
1 40021U 14033M   19352.05528196  .00000224  00000-0  28663-4 0  9991
2 40021  97.9327 277.3066 0013083 162.8429 197.3233 14.90764006298716
QB50P1
1 40025U 14033R   19351.74793482 +.00000189 +00000-0 +26015-4 0  9991
2 40025 097.9100 271.1448 0012403 174.2407 185.8955 14.89038447297907
CHUBUSAT 1
1 40300U 14070C   19352.27052259  .00000648  00000-0  30968-4 0  9999
2 40300  97.3120  61.6775 0021053 131.3231 269.8567 15.22291576283790
NUDT-PHONESAT
1 40900U 15049B   19352.49618728  .00001693  00000-0  74050-4 0  9996
2 40900  97.4349   0.0836 0011000 263.1757 249.8831 15.23402626235489
ZDPS 2A
1 40901U 15049C   19352.35919208  .00000697  00000-0  37615-4 0  9998
2 40901  97.4607 355.5825 0011896 290.7055 181.2108 15.17982173234942
ZDPS 2B
1 40902U 15049D   19352.40652443  .00001165  00000-0  60766-4 0  9994
2 40902  97.4576 352.9845 0011893 287.9506 208.8829 15.17891134234927
XW-2A
1 40903U 15049E   19352.38141544  .00001555  00000-0  37877-4 0  9997
2 40903  97.3146  35.9911 0012707 196.5838 289.5269 15.42429906238403
KAITUO 1A
1 40904U 15049F   19352.44901147  .00000262  00000-0  17292-4 0  9991
2 40904  97.4714 351.3959 0013217 298.3783 220.2525 15.15537419234671
OBJECT G
1 40905U 15049G   19352.46180063  .00000524  00000-0  32067-4 0  9998
2 40905  97.4773 348.7748 0014097 293.0686 220.5262 15.14418744234538
XW-2C
1 40906U 15049H   19352.40272106  .00000684  00000-0  39167-4 0  9998
2 40906  97.4721 351.5222 0013270 288.9588 180.8838 15.15864028234670
XW-2D
1 40907U 15049J   19352.29378199  .00000445  00000-0  26590-4 0  9996
2 40907  97.4705 351.1009 0012593 285.6722 200.1730 15.16067847234675
LILACSAT 2
1 40908U 15049K   19352.42940976  .00000077  00000-0  78731-5 0  9996
2 40908  97.4842 349.8384 0014466 294.1101 194.1816 15.13913326234457
XW-2F
1 40910U 15049M   19352.40545045  .00001013  00000-0  53685-4 0  9996
2 40910  97.4651 353.4994 0013049 275.8890 195.0338 15.17599595234724
XW-2B
1 40911U 15049N   19352.39766921  .00000736  00000-0  41757-4 0  9991
2 40911  97.4716 351.8832 0012588 287.3354 180.5056 15.15998984234583
KAITUO 1B
1 40912U 15049P   19352.42001792  .00000996  00000-0  49430-4 0  9998
2 40912  97.4489 357.4393 0013220 253.5964 216.2801 15.19948697235060
TIANWANG 1C (TW-1C)
1 40926U 15051B   19352.50569604  .00011446  00000-0  14421-3 0  9999
2 40926  97.1120  38.6470 0008546  58.8302  46.7714 15.59737961238612
